Regional Weather Roundup
Issued by NWS

Home | Current Version | Previous Version | Text Only | Print | Product List | Glossary On
Versions: 1 2 3 4 5 6 7 8 9 10 11 12 13 14 15 16 17 18 19 20 21 22 23 24 25 26 27 28 29 30 31 32 33 34 35 36 37 38 39 40 41 42 43 44 45 46 47 48 49 50
000
ASUS43 KLOT 100803
RWRIL

ILLINOIS REGIONAL WEATHER ROUNDUP
NATIONAL WEATHER SERVICE CHICAGO/ROMEOVILLE IL
200 AM CST WED FEB 10 2016

NOTE: "FAIR" INDICATES FEW OR NO CLOUDS BELOW 12,000 FEET WITH NO
SIGNIFICANT WEATHER AND/OR OBSTRUCTIONS TO VISIBILITY.

* THESE STATIONS ARE NOT UNDER NWS QUALITY CONTROL. THEY ALSO MAY NOT
  REPORT WEATHER SUCH AS PRECIPITATION OR FOG.

ILZ001-002-007-009-015-016-024-100900-
NORTHWEST ILLINOIS

CITY           SKY/WX    TMP DP  RH WIND       PRES   REMARKS
MOLINE         CLEAR     11   0  61 NW12      30.09F WCI  -3
STERLING*      CLEAR     10   0  61 W8        30.01F WCI  -1
$$

ILZ003-004-008-010-011-017-018-100900-
NORTH CENTRAL ILLINOIS

CITY           SKY/WX    TMP DP  RH WIND       PRES   REMARKS
ROCKFORD       PTCLDY    10   0  63 NW12      30.01F WCI  -5
FREEPORT*      PTCLDY     8   0  70 NW9       30.03F WCI  -6
DE KALB*       CLOUDY    12   3  67 NW12G17   29.97F WCI  -2
$$

ILZ005-006-012>014-019>023-100900-
NORTHEAST ILLINOIS

CITY           SKY/WX    TMP DP  RH WIND       PRES   REMARKS
CHICAGO-OHARE  PTCLDY    13   3  64 NW17G26   29.95R WCI  -4
CHICAGO-MIDWAY PTCLDY    15   3  59 NW10      29.96R WCI   2
AURORA         CLOUDY    14   5  67 NW15      29.98S WCI  -1
LANSING*       CLOUDY    16   6  67 NW9       29.95R WCI   4
WAUKEGAN       MOCLDY    11   2  67 NW8G17    29.94R WCI  -1
DUPAGE AIRPORT CLOUDY    13   2  61 NW21G28   29.96R WCI  -5
WHEELING       PTCLDY    12   2  64 NW17G23   29.97R WCI  -5
NORTHERLY ISL    N/A     16   6  65 NW15        N/A  WCI   1
$$

LMZ740>746-100900-
SOUTHERN LAKE MICHIGAN

STATION/POSITION SKY/WX   TEMP    WIND        PRES    VSBY  WAVE
                          AIR SEA DIR/SP/G                  HT/PER
                          (F)     (DEG/KT/KT) (MB)    (MI)  (FT/S)
HARRISON CRIB              17     310/ 23/ 26   N/A
BURNHAM HARBOR             15     300/ 22       N/A
CALUMET HARBOR             15     280/ 13/ 19 1013.1S
BURNS HARBOR               18     300/ 19/ 24 1013.2F
MICHIGAN CITY              19     270/ 26/ 30   N/A
$$

ILZ025>027-034>036-040-047-049-050-058-095>099-100900-
WEST-CENTRAL ILLINOIS

CITY           SKY/WX    TMP DP  RH WIND       PRES   REMARKS
QUINCY         CLOUDY    12   4  70 NW13      30.14S WCI  -3
GALESBURG*     CLEAR      8   3  78 W8        30.08F WCI  -4
MACOMB*        CLOUDY    10   5  80 NW12      30.13F WCI  -5
$$

ILZ028>032-037-038-041>044-048-051>054-059>061-100900-
CENTRAL ILLINOIS

CITY           SKY/WX    TMP DP  RH WIND       PRES   REMARKS
BLOOMINGTON    CLEAR     10   4  77 NW15      30.03S WCI  -7
DECATUR        CLEAR     12   4  70 NW15      30.06R WCI  -4
PEORIA         CLEAR     11   2  67 NW10      30.07F WCI  -3
LINCOLN*       CLEAR     13   6  74 NW8       30.08S WCI   1
SPRINGFIELD    CLEAR     13   5  70 NW10      30.11R WCI   0
TAYLORVILLE    NOT AVBL
$$

ILZ033-039-045-046-055>057-062-063-100900-
EAST-CENTRAL ILLINOIS

CITY           SKY/WX    TMP DP  RH WIND       PRES   REMARKS
CHAMPAIGN      PTCLDY    12   5  73 NW18      30.03R WCI  -6
MATTOON        CLOUDY    13   6  74 NW20      30.03S WCI  -5
$$

ILZ079-100>102-100900-
SOUTHWEST ILLINOIS

CITY           SKY/WX    TMP DP  RH WIND       PRES   REMARKS
ALTON          MOCLDY    15   6  69 W13       30.15R WCI   1
BELLEVILLE     PTCLDY    15   6  67 NW15G21   30.14R WCI   0
CAHOKIA*       CLOUDY    19   6  57 NW13      30.16S WCI   6
SPARTA*        CLOUDY    18   8  63 NW10G17   30.15R WCI   6
$$

ILZ064>066-069>071-074>076-080>082-084>086-088>090-092>094-100900-
SOUTH-CENTRAL ILLINOIS

CITY           SKY/WX    TMP DP  RH WIND       PRES   REMARKS
CARBONDALE     PTCLDY    15   8  73 NW5       30.14R WCI   8
MARION         MOCLDY    19  10  68 NW5       30.13S WCI  13
MT. VERNON     CLOUDY    16   3  57 NW5       30.11S WCI   9
CENTRALIA*     CLOUDY    17   8  67 NW18G26   30.11R WCI   0
SALEM*         LGT SNOW  17   9  71 NW13G20   30.11R WCI   3
$$

ILZ067-068-072-073-078-083-087-091-100900-
SOUTHEAST ILLINOIS

CITY           SKY/WX    TMP DP  RH WIND       PRES   REMARKS
LAWRENCEVILLE  LGT SNOW  16  12  84 NW16      30.07R FOG     WCI   1
HARRISBURG*    CLEAR     17   8  67 NW13G20   30.12S WCI   4
$$

ABBREVIATIONS USED IN REMARKS
   TC - TEMPERATURE IN CELSIUS
  WCI - WIND CHILL INDEX
   HX - HEAT INDEX
  VSB - VISIBILITY
$$




USA.gov is the U.S. government's official web portal to all federal, state and local government web resources and services.